Regional Weather Roundup
Issued by NWS Cleveland, OH

Home | Current Version | Previous Version | Graphics & Text | Print | Product List | Glossary On
Versions: 1 2 3 4 5 6 7 8 9 10 11 12 13 14 15 16 17 18 19 20 21 22 23 24 25 26 27 28 29 30 31 32 33 34 35 36 37 38 39 40 41 42 43 44 45 46 47 48 49 50
727
ASUS41 KCLE 281300
RWRCLE
OHIO REGIONAL WEATHER ROUNDUP
NATIONAL WEATHER SERVICE WILMINGTON, OH
900 AM EDT SAT MAY 28 2016

NOTE: "FAIR" INDICATES FEW OR NO CLOUDS BELOW 12,000 FEET WITH NO
SIGNIFICANT WEATHER AND/OR OBSTRUCTIONS TO VISIBILITY.

OHZ001>008-015>018-024>027-034-035-043-044-281400-
   NORTHWEST OHIO

CITY           SKY/WX    TMP DP  RH WIND       PRES   REMARKS
DEFIANCE       PTSUNNY   76  64  66 S12       30.03R
FINDLAY        PTSUNNY   76  63  64 S10       30.05R
TOLEDO EXPRESS FAIR      76  65  68 S7        30.03S
TOLEDO EXEC    FAIR      77  64  64 S12       30.05R
LIMA           FAIR      75  65  70 SW10      30.06R
$$

OHZ009>014-019>023-028>033-038-089-281400-
   NORTHEAST OHIO

CITY           SKY/WX    TMP DP  RH WIND       PRES   REMARKS
CLE-HOPKINS    FAIR      80  66  62 S6        30.09R
CLE-LAKEFRONT  FAIR      79  66  64 SE10      30.06R
CUY CO. ARPT   PTSUNNY   81  70  69 S8        30.09
LORAIN-ELYRIA  FAIR      77  66  68 SW9       30.08R
ASHTABULA      FAIR      76  68  76 S3        30.11R
AKRON-CANTON   FAIR      73  65  75 S9        30.11R
WOOSTER        NOT AVBL
MANSFIELD      PTSUNNY   76  65  68 S9        30.10S
YOUNGSTOWN     PTSUNNY   77  65  66 S6        30.12R
$$

OHZ042-051>053-060>062-070>072-077>081-281400-
  SOUTHWEST OHIO

CITY           SKY/WX    TMP DP  RH WIND       PRES   REMARKS
CINC-COVINGTON CLOUDY    72  66  81 S7        30.09R
CINC-LUNKEN    PTSUNNY   72  68  87 SW5       30.09R
HAMILTON       FAIR      75  67  76 VRB3      30.09R
DAYTON         NOT AVBL
WRIGHT-PAT AFB NOT AVBL
DAYTON GENERAL FAIR      73  65  75 S10       30.09R
WILMINGTON     CLOUDY    71  65  81 S8        30.10R
$$

OHZ036-037-039>041-045>050-054>059-063>069-073>076-082>088-281400-
  CENTRAL AND SOUTHEAST OHIO

CITY           SKY/WX    TMP DP  RH WIND       PRES   REMARKS
COLUMBUS       CLOUDY    73  65  75 S9        30.10R
OSU AIRPORT    CLOUDY    73  65  75 S8        30.10R
BOLTON FIELD   NOT AVBL
RICKENBACK AFB NOT AVBL
NEWARK         FAIR      76  66  71 SW7       30.11R
MARION         CLOUDY    73  65  75 S9        30.10R
LANCASTER      FAIR      75  65  70 S8        30.11R
ZANESVILLE     FAIR      76  66  71 SW9       30.12R
NEW PHILLY     FAIR      77  65  66 VRB5      30.11S
$$




USA.gov is the U.S. government's official web portal to all federal, state and local government web resources and services.